Presure
132 134 132 126 130 125 122 129 136 115 105 104 116 115 119 110 114 104 88 119 115 112 106 122 103 108 107 111 128 112 123 119 110 121 88 83 130 133 129 109 134 119 132 163 251 124 221 122 141
142 135 130 132 122 120 120 126 133 130 120 117 124 141 140 135 130 124 102 124 121 100 112 117 131 132 131 107 121 115 119 131 130 128 134 115 95 124 133 187 119 194 121 232 171 223 232 258 228
151 146 150 142 140 139 138 139 140 122 135 128 130 131 126 122 120 128 120 118 123 128 133 139 140 127 122 129 122 123 119 88 119 137 137 107 224 242 130 170 230 209 211 128 158 201 217 220 217
214 208 175 172 147 149 154 157 156 158 152 144 133 134 137 127 124 130 114 129 131 114 126 121 122 123 122 132 128 128 129 115 137 225 138 71 236 231 236 217 153 168 161 201 225 214 197 178 204
150 197 154 143 191 157 176 183 207 194 214 249 223 179 174 162 172 121 129 137 122 113 132 151 138 122 108 126 112 143 116 231 203 212 226 220 228 242 215 158 167 192 214 212 208 205 197 192 210
167 197 198 183 113 139 144 142 169 132 140 143 193 191 165 165 257 258 212 249 137 205 191 192 198 177 188 162 212 238 231 227 207 223 182 219 162 143 113 105 215 202 193 179 198 187 214 173 173
199 202 201 143 168 200 149 157 159 175 140 126 135 138 155 162 243 232 225 221 229 249 207 230 224 225 222 226 227 214 224 223 159 191 161 136 164 150 223 179 216 241 216 223 220 104 106 152 153
213 228 212 215 209 199 192 220 213 208 216 206 204 214 218 214 228 148 148 151 153 217 147 219 199 222 223 224 217 224 216 196 212 91 204 211 216 224 227 144 241 219 205 114 96 199 106 208 186
190 200 203 195 215 185 197 192 219 218 140 144 196 161 132 191 184 110 180 177 152 169 188 235 227 222 224 226 175 201 148 213 195 195 203 204 183 224 226 196 231 146 130 146 201 177 195 157 166
169 186 174 123 206 176 185 209 203 214 228 210 202 200 194 199 218 206 177 111 143 240 244 241 235 235 219 184 160 157 191 215 167 204 124 199 214 211 144 198 265 168 173 193 196 201 199 202 197
131 209 190 199 210 208 206 211 211 209 211 216 218 219 157 188 170 192 197 208 211 236 234 225 210 214 205 208 155 190 193 195 204 208 197 200 209 168 207 194 145 231 219 95 199 218 211 183 194
125 113 204 211 188 146 120 186 122 213 220 207 217 217 220 182 195 207 205 205 203 240 242 235 222 216 218 207 196 211 205 198 206 201 204 202 149 213 207 219 231 230 220 219 217 230 205 206 182
140 209 137 173 156 180 173 205 128 161 202 211 129 78 178 167 196 198 203 199 202 199 216 215 197 209 209 197 155 201 201 203 189 203 193 200 216 200 219 134 226 186 212 215 219 215 217 209 192
244 245 198 243 231 235 173 200 216 218 201 185 211 215 146 206 175 152 196 203 196 204 214 217 204 193 192 198 203 148 201 193 205 189 199 210 215 211 211 221 234 252 220 207 216 234 230 217 202
230 262 256 239 236 238 233 132 258 197 137 198 199 214 216 198 206 202 189 199 205 180 190 205 219 197 192 193 189 189 182 198 173 204 201 205 199 226 220 211 213 254 207 218 204 245 236 242 240
240 252 265 262 250 249 240 217 115 228 175 216 227 219 196 211 200 202 182 207 194 189 197 211 193 201 187 192 192 195 198 194 182 194 214 192 219 198 229 215 200 224 211 213 214 207 232 239 248
259 243 258 211 251 175 250 251 131 145 236 222 226 213 212 202 206 197 200 202 182 201 200 193 176 185 210 209 203 198 197 195 191 195 202 191 214 201 223 222 206 212 228 209 208 235 230 236 239
332 316 246 259 245 239 244 263 270 244 178 215 219 227 219 213 208 199 200 197 192 190 182 190 178 189 196 196 189 181 194 206 195 204 215 214 193 212 218 216 222 222 235 199 211 239 223 221 229
327 353 341 60 221 235 253 267 62 255 240 240 226 223 227 208 200 212 126 198 188 192 180 175 179 170 193 190 179 178 190 190 192 194 211 205 205 210 215 251 217 222 233 209 207 207 221 233 226
409 379 387 397 387 343 287 252 251 265 242 223 223 225 227 223 201 218 209 152 190 198 185 188 176 180 201 191 189 194 193 193 202 201 205 201 215 219 203 253 216 213 224 204 227 206 219 239 241
379 370 369 379 362 381 351 345 292 276 258 249 232 230 226 213 208 211 214 198 198 198 193 186 191 179 189 187 185 175 181 191 188 191 199 214 209 213 169 249 212 209 218 208 229 214 219 222 226
451 415 376 363 348 343 351 368 299 268 267 253 242 235 221 220 226 202 213 215 214 200 190 196 189 188 180 172 186 173 190 187 198 186 210 217 196 225 212 247 206 232 208 201 210 219 216 235 235
392 363 360 342 334 331 341 336 338 265 263 251 241 234 230 226 226 213 219 206 202 182 197 191 181 179 181 196 185 187 185 182 193 190 202 198 214 214 229 245 217 227 207 206 216 219 239 227 227
360 354 337 344 320 339 327 322 304 335 245 241 244 236 234 235 225 225 207 210 199 193 193 188 186 186 190 161 186 187 172 195 183 205 190 167 214 212 226 245 208 219 204 213 194 229 225 217 233
364 344 319 332 312 347 330 298 282 292 278 227 231 241 236 226 224 218 200 203 204 183 192 191 190 185 183 187 181 193 196 193 192 192 188 198 219 226 225 246 223 204 199 211 215 225 227 239 256
292 302 324 328 329 333 318 279 277 273 301 241 239 246 239 231 223 214 207 208 206 198 203 195 193 194 196 188 186 196 188 190 195 194 194 207 208 216 228 236 225 204 195 204 205 213 220 237 263
302 317 333 314 306 303 310 279 271 260 257 289 269 223 228 228 224 221 209 205 213 208 206 201 196 192 195 182 189 197 197 204 191 193 210 201 209 220 207 233 228 202 195 200 211 209 213 209 222
324 320 301 290 280 303 309 289 277 258 254 246 261 224 223 225 216 211 207 206 205 203 185 194 204 193 185 190 206 206 200 209 188 194 192 208 209 221 222 232 226 203 194 197 194 181 208 191 195
286 279 284 264 274 243 253 270 270 246 247 240 238 253 224 224 209 208 216 204 206 203 148 192 199 200 193 205 212 157 197 194 180 179 211 200 211 221 210 224 226 210 194 196 189 189 202 210 198
275 268 270 273 258 243 243 263 248 230 251 233 226 234 249 236 221 211 210 88 211 194 201 193 108 200 203 205 191 193 195 192 120 191 221 207 207 209 208 226 239 238 199 195 199 189 180 198 190
Wind_Speed
73 72 69 60 65 64 66 73 73 44 36 49 59 55 41 38 40 49 29 51 53 50 46 48 46 46 45 48 54 51 57 55 48 56 35 29 60 63 59 49 59 58 64 59 27 57 47 58 60
81 75 69 71 64 65 68 69 70 65 50 55 66 75 67 57 56 57 47 56 57 48 50 51 57 57 56 50 53 57 57 60 62 60 60 54 41 59 65 46 56 40 59 18 36 25 18 12 34
86 81 82 78 78 80 83 82 79 55 68 68 73 67 56 49 53 58 60 57 58 60 59 60 62 56 54 53 53 58 58 27 58 67 65 44 44 35 37 36 28 34 41 49 63 36 21 27 31
82 88 92 91 79 84 91 94 89 87 82 80 74 74 67 56 56 63 62 70 63 54 57 51 55 57 55 59 57 59 62 59 67 41 63 17 41 35 31 31 39 62 68 53 42 43 59 69 53
76 71 78 74 67 74 66 72 70 90 60 36 58 83 93 83 86 61 67 78 59 52 62 73 66 59 49 56 46 67 31 38 36 42 42 46 43 38 36 64 61 53 42 46 51 52 57 61 47
61 89 77 73 63 74 81 84 80 65 67 70 65 72 83 82 37 35 61 41 55 67 63 65 67 53 69 78 52 36 34 36 43 38 56 44 58 55 39 27 39 45 54 60 58 54 51 56 64
91 90 83 72 75 68 86 91 93 84 63 63 66 69 76 77 33 37 42 46 47 45 37 51 52 50 49 45 39 43 35 35 71 47 65 54 59 57 30 49 36 31 44 47 48 31 35 45 50
81 77 77 65 69 76 89 70 77 77 67 68 76 54 51 50 36 70 75 72 73 48 68 51 57 50 47 45 42 38 37 42 35 36 45 41 40 37 29 60 30 35 40 43 34 56 38 52 54
82 82 80 78 74 74 87 82 73 77 66 74 82 61 65 80 39 22 53 59 77 69 65 46 50 48 47 44 57 48 66 35 31 49 43 45 46 43 32 38 31 60 57 47 53 59 63 48 51
80 80 77 63 82 81 83 81 88 82 65 67 73 71 74 67 38 53 57 47 65 42 37 37 42 40 40 58 68 66 50 33 37 35 40 46 47 45 60 40 33 38 39 41 54 54 62 62 63
67 92 86 86 88 90 84 81 85 81 70 61 66 63 48 80 80 68 60 44 43 37 37 34 41 39 46 41 58 46 42 36 34 36 43 43 48 48 39 39 63 41 45 41 42 52 58 57 60
65 66 93 93 87 76 65 84 51 86 69 65 62 68 54 80 70 52 50 44 42 35 38 34 36 39 45 42 48 43 39 37 36 40 43 50 39 42 43 38 33 37 44 43 41 39 56 61 58
77 103 68 81 82 84 85 85 75 72 78 72 44 29 51 72 66 69 55 48 43 43 34 32 42 38 38 50 38 39 41 38 43 41 43 46 48 47 42 39 33 43 40 41 38 41 44 52 64
93 94 96 97 97 95 84 88 101 80 81 75 73 66 66 61 71 74 66 47 45 33 38 36 35 44 45 44 45 57 40 41 40 44 48 47 46 47 43 41 35 33 40 41 39 39 42 48 60
105 96 95 100 90 93 99 76 90 78 53 71 71 68 64 67 62 65 73 55 40 59 50 38 39 43 48 48 48 44 48 45 50 40 45 44 45 43 43 40 36 33 36 39 40 38 39 44 46
92 104 93 81 85 89 95 84 65 84 79 80 79 69 75 67 68 64 77 55 55 53 41 35 47 48 49 47 43 43 41 43 50 45 43 46 43 47 36 41 37 32 34 37 37 36 40 43 43
97 105 98 93 86 55 95 87 86 72 89 80 83 73 71 70 67 66 67 61 71 49 38 42 65 57 35 37 40 42 39 40 47 46 41 47 40 45 40 39 38 34 32 35 38 37 39 43 45
99 104 106 97 86 96 95 89 81 93 83 77 77 80 71 67 67 71 69 67 64 64 56 42 60 51 44 36 43 52 39 35 43 42 40 41 43 41 43 41 36 34 32 35 36 34 36 41 48
83 91 91 11 93 104 100 96 17 93 96 89 77 79 76 67 74 69 51 66 74 67 61 62 60 72 50 41 54 57 47 46 44 41 38 42 44 45 43 39 38 35 32 29 36 35 36 37 44
66 70 66 62 65 91 98 92 88 90 90 79 78 78 77 71 72 70 73 59 75 65 60 50 63 60 50 44 44 38 42 46 41 36 39 42 42 44 45 39 37 36 32 31 33 36 37 29 38
42 57 52 53 65 64 77 78 85 89 92 87 82 83 79 71 75 77 72 73 68 61 59 60 56 60 51 57 49 59 52 49 50 43 39 41 41 43 49 38 36 36 32 31 32 36 35 35 31
33 33 40 48 56 56 52 48 79 84 86 85 86 83 79 76 75 73 67 66 62 61 64 55 55 58 60 68 58 60 43 52 42 47 44 45 42 44 42 34 36 35 33 33 32 37 35 30 25
22 37 38 44 42 50 46 47 35 81 81 79 79 85 87 83 73 67 63 66 62 69 63 62 67 63 54 58 64 51 48 55 48 48 45 41 45 43 39 33 32 35 32 33 33 35 26 35 29
35 33 33 31 40 34 41 41 46 32 74 73 88 84 82 79 66 59 68 64 68 70 69 71 70 65 59 56 68 60 56 51 57 45 50 51 48 43 39 32 32 35 32 31 33 31 32 33 35
27 30 33 30 31 32 41 44 52 44 60 78 79 84 79 75 64 61 71 72 70 69 73 71 69 68 62 59 66 62 50 51 54 50 50 46 54 47 38 33 30 35 33 30 30 29 28 30 29
20 16 22 24 24 32 41 44 48 59 52 78 81 79 78 76 71 67 72 72 72 72 71 73 69 65 57 63 65 62 54 50 51 51 55 51 48 43 40 31 29 35 34 33 34 28 21 21 31
19 18 22 24 27 32 38 52 54 55 53 59 72 68 71 73 70 70 69 69 65 68 68 70 69 64 59 65 68 63 54 54 51 54 60 51 49 46 38 33 30 36 35 36 33 28 27 22 25
19 25 29 27 15 7 30 46 46 47 50 56 53 72 76 73 72 71 69 69 70 70 67 73 68 67 61 66 67 61 55 47 51 57 56 58 53 50 43 33 33 38 37 38 36 35 33 35 36
33 32 36 35 27 36 21 33 41 48 45 53 60 56 72 73 75 74 71 70 71 71 46 73 71 68 68 67 58 44 50 50 55 54 66 58 55 52 40 35 36 41 40 42 40 39 37 40 44
37 36 34 33 34 36 35 39 43 38 49 61 69 68 60 67 70 73 73 25 72 73 75 72 34 72 67 64 60 57 60 51 25 59 67 59 55 48 44 39 36 42 44 46 46 44 43 46 46
Wind_Direction
266 266 267 267 267 266 267 266 266 263 263 261 267 263 264 260 261 255 256 267 267 263 264 268 263 264 265 266 270 271 272 273 275 269 262 272 279 280 278 275 279 276 277 277 289 278 266 282 279
262 263 264 267 262 263 263 266 267 269 265 265 270 268 271 270 270 267 265 266 267 264 266 269 269 269 269 269 269 269 273 274 274 275 276 274 277 280 282 288 278 280 279 253 268 266 266 302 260
260 261 261 263 263 262 263 264 265 261 267 266 267 268 268 264 269 272 271 264 266 269 270 271 272 269 269 270 268 270 271 258 274 277 276 272 291 294 267 281 281 259 255 271 275 258 244 239 241
260 261 260 261 262 262 262 263 264 266 264 264 266 267 267 268 269 272 261 272 270 262 269 263 267 267 268 273 273 274 275 271 277 293 276 318 294 286 284 258 268 278 279 268 222 242 269 273 254
258 259 259 260 259 260 264 261 264 263 261 266 261 267 268 270 269 259 266 271 267 262 271 272 274 272 268 271 268 278 268 293 289 288 295 290 293 296 275 279 277 272 254 249 254 261 265 273 249
264 262 260 259 262 261 261 262 263 260 263 264 260 270 269 270 280 275 270 269 264 267 270 272 273 272 276 276 282 294 291 291 281 290 282 293 280 279 281 280 255 262 271 275 268 272 242 275 277
261 261 261 259 261 260 260 260 262 265 263 265 267 266 269 266 286 274 266 262 264 263 263 266 271 274 278 280 285 277 287 288 278 282 280 277 280 279 285 276 264 242 255 248 251 269 273 269 271
265 271 258 260 257 257 261 265 258 258 256 259 264 254 264 265 278 267 264 269 270 266 272 267 271 273 276 278 278 285 281 277 281 259 281 291 298 297 304 280 259 247 243 275 272 263 279 255 266
260 262 261 262 262 255 257 260 261 259 260 264 262 260 264 267 265 263 266 267 268 271 272 263 266 273 277 281 275 278 277 282 286 275 282 285 283 298 301 281 269 281 282 268 250 267 262 263 255
263 259 263 262 260 256 257 258 260 258 261 258 258 259 261 258 254 253 263 261 266 266 270 270 274 278 274 274 274 274 280 285 278 282 287 286 302 289 282 286 270 262 262 252 260 247 251 255 254
262 264 261 260 260 261 258 260 259 261 258 260 263 258 250 261 267 260 254 260 264 269 262 262 267 270 268 270 275 278 268 267 283 292 279 287 303 285 283 281 279 262 258 282 254 245 241 260 257
265 266 264 259 262 253 265 259 260 261 260 255 254 261 260 261 258 251 246 248 258 269 262 258 261 269 268 271 268 277 278 275 289 290 292 291 301 286 285 292 287 263 263 258 247 249 246 243 252
255 266 255 261 265 259 261 261 263 260 259 259 242 245 253 260 254 255 251 248 251 251 263 254 252 263 266 268 276 273 276 283 267 287 278 289 296 287 293 282 287 283 265 262 255 242 244 242 243
271 267 266 263 264 266 257 262 260 262 262 257 258 255 254 249 256 262 255 246 247 253 263 259 248 253 258 266 273 273 277 270 286 267 283 293 292 288 291 290 288 286 256 262 256 257 249 241 239
264 267 263 263 266 263 261 253 253 261 260 257 252 252 250 247 254 254 256 249 239 256 256 257 254 247 254 260 267 266 266 282 281 286 281 286 285 292 287 286 286 292 263 264 258 254 252 242 232
266 262 260 260 260 257 254 252 260 250 260 256 254 246 249 247 246 251 257 252 246 246 245 263 250 252 255 259 267 268 271 272 269 273 288 276 289 286 284 282 281 285 263 268 263 257 253 245 237
262 264 262 257 255 251 251 246 253 266 248 254 254 250 243 246 249 246 251 251 253 245 229 241 263 258 252 259 262 265 269 270 272 274 279 280 286 283 288 279 280 272 270 265 262 258 254 250 238
265 260 256 254 246 248 249 243 237 244 247 245 247 249 246 238 242 244 246 246 244 246 245 240 257 258 256 252 257 265 267 275 272 281 290 287 276 294 291 283 282 278 273 260 265 254 256 250 242
261 258 255 251 254 250 246 242 258 239 241 240 240 244 245 238 240 240 256 246 246 246 247 252 252 264 257 252 263 270 267 268 272 277 293 290 286 290 290 290 280 279 272 260 262 257 257 250 248
250 251 249 244 234 237 240 246 243 233 241 244 245 245 245 239 236 237 237 254 244 248 248 236 250 250 264 249 253 263 274 274 282 281 286 285 297 293 284 289 276 276 267 259 261 258 255 249 243
244 243 242 235 233 233 235 236 229 227 233 234 238 238 238 234 238 233 234 241 244 247 244 241 239 258 254 256 251 262 267 271 272 277 280 296 295 293 282 287 274 276 267 266 261 262 254 253 236
244 227 228 225 229 230 231 232 227 228 230 232 235 236 235 232 233 238 233 238 240 245 249 245 245 244 254 263 260 264 262 269 278 275 290 301 277 305 279 284 267 272 262 263 262 263 261 241 238
198 206 209 218 224 229 220 223 217 226 228 230 233 235 234 231 227 229 229 234 239 244 244 247 248 247 244 260 260 260 264 268 274 274 287 278 297 299 291 282 266 266 258 264 263 267 254 259 249
198 193 205 208 220 222 215 212 219 215 227 226 228 232 234 235 227 225 229 230 233 239 240 243 248 251 246 254 261 260 262 272 270 287 276 269 295 292 290 279 261 261 257 260 263 260 254 256 255
201 187 202 199 211 220 199 201 215 216 213 224 227 228 232 233 229 224 228 229 228 242 240 244 246 251 254 255 260 265 267 272 276 278 278 280 296 296 286 277 260 254 251 253 259 250 252 261 248
175 195 207 204 201 199 193 190 206 213 212 226 225 225 229 231 230 223 226 229 230 236 235 242 246 248 248 257 260 264 263 268 277 277 277 287 287 289 283 272 253 247 249 250 253 247 240 251 230
178 180 174 171 178 195 189 195 206 217 225 226 232 226 231 231 230 227 228 233 234 235 237 240 243 249 246 253 258 263 268 274 269 274 286 279 284 287 276 273 251 240 244 247 249 242 235 219 206
158 142 139 130 134 182 202 195 200 207 216 224 227 219 225 228 228 233 229 229 234 236 239 243 243 246 249 251 258 263 265 263 265 270 273 279 281 284 282 270 245 233 239 242 247 251 233 240 219
133 142 140 156 142 182 206 198 196 208 211 221 228 230 222 225 232 233 231 233 234 238 243 245 246 245 247 252 255 258 256 256 259 263 279 274 279 278 276 266 246 232 235 238 243 244 233 226 225
139 144 143 145 153 179 195 188 187 207 221 222 228 229 223 226 226 232 234 252 235 239 241 246 255 251 250 253 252 257 261 256 262 263 276 273 273 271 274 265 257 240 231 236 234 240 244 232 236